{"data":{"norad_id":48218,"intl_designator":"2021-031J","name":"ONEWEB-0196","alt_names":[],"object_type":"PAYLOAD","status":"ACTIVE","operator":null,"country":"UK","launch_date":"2021-04-25","launch_site_code":"VOSTO","launch_vehicle":null,"mission":null,"orbit_class":"UNKNOWN","rcs_meters":null,"size_class":null,"mass_kg":null,"dimensions":null,"purposes":["comms"],"wikipedia_slug":null,"has_3d_model":false,"image_url":null,"decayed_at":null,"tle_current":{"epoch":"2026-05-25T03:40:49.787328Z","epoch_age_seconds":72176,"freshness":"FRESH","line1":"1 48218U 21031J   26145.15335402  .00000045  00000+0  86165-4 0  9999","line2":"2 48218  87.8941 294.3004 0001748 102.6578 257.4747 13.14502013245202","mean_motion":13.14502013,"eccentricity":0.0001748,"inclination_deg":87.8941,"raan_deg":294.3004,"arg_perigee_deg":102.6578,"mean_anomaly_deg":257.4747,"bstar":8.6165e-5,"rev_number":24520,"period_min":109.54718865082,"perigee_km":1204.4677106405,"apogee_km":1207.1190527019,"semimajor_km":7583.9303816712,"source":"CELESTRAK","updated_at":"2026-05-25T13:38:22.433128Z"}}}